National Weather Service Hourly Weather Roundup
NOAA NWS Hourly Roundups by Site
NOAA NWS Hourly Roundups by Site
Regional Weather Roundup for Sacramento, CA

To Select Another Site Choose from List

Select Site:  

000
ASUS46 KSTO 010915
RWRCA

NORTHERN AND CENTRAL CA REGIONAL WEATHER ROUNDUP
NATIONAL WEATHER SERVICE SACRAMENTO CA
100 AM PST MON MAR 01 2021

NOTE: FAIR INDICATES FEW OR NO CLOUDS BELOW 12,000 FEET WITH NO
SIGNIFICANT WEATHER AND/OR OBSTRUCTIONS TO VISIBILITY.

CAZ001-003-011000-
NORTHWEST AREA

CITY           SKY/WX    TMP DP  RH WIND       PRES   REMARKS
CRESCENT CITY  MOCLDY   N/A N/A N/A S6        30.14S
UKIAH          CLEAR     41  35  79 CALM      30.16F
$$

CAZ006-505>513-011000-
BAY AREA

CITY           SKY/WX    TMP DP  RH WIND       PRES   REMARKS
SANTA ROSA     CLEAR     38  34  85 W5        30.16S WCI  34
SAN RAFAEL     N/A       46  MM  MM MISG
NAPA           CLEAR     44  32  62 N6        30.17S
CONCORD        CLEAR     46  33  60 CALM      30.18S
OAKLAND CITY   N/A       51  MM  MM MISG
OAKLAND        CLEAR     49  39  68 E5        30.19S
SAN FRAN CITY  N/A       51  MM  50 MISG
SAN FRAN ARPT  CLEAR     49  32  52 CALM      30.17S
LIVERMORE      CLEAR     42  30  62 E3        30.17F
HAYWARD        CLEAR     47  33  58 NE5       30.17S
REDWOOD CITY   N/A       43  MM  67 MISG
MOFFETT ARPT   CLEAR     46  34  61 CALM      30.17F
SAN JOSE ARPT  CLEAR     47  30  51 SE6       30.17F
$$
CAZ034-037-514>518-011000-
CENTRAL COAST

CITY           SKY/WX    TMP DP  RH WIND       PRES   REMARKS
WATSONVILLE    CLEAR     43  28  55 CALM      30.20S
SALINAS        CLEAR     44  35  70 SE9       30.19S
MONTEREY       CLEAR     47  33  58 SE5       30.19S
SAN LUIS OBISP CLEAR     41  29  62 CALM      30.20S
SANTA MARIA    CLEAR     42  31  64 MISG      30.21R
HALF MOON BAY  FAIR      39  32  75 CALM      30.18R
$$
CAZ015-016-011000-
NORTHERN SACRAMENTO VALLEY

CITY           SKY/WX    TMP DP  RH WIND       PRES   REMARKS
REDDING        CLEAR     41  32  70 CALM      30.17S
RED BLUFF      CLEAR     43  31  62 SW6       30.18S
OROVILLE       CLEAR     53  33  46 E9        30.19F
$$
CAZ016>018-011000-
SOUTHERN SACRAMENTO VALLEY

CITY           SKY/WX    TMP DP  RH WIND       PRES   REMARKS
AUBURN         CLEAR     48  32  53 E7        30.20R
BEALE AFB      CLEAR     47  34  61 NE3       30.17S
LINCOLN        FAIR      43  36  75 E9        30.17F
MARYSVILLE     CLEAR     45  33  63 NE3       30.19S
SAC INTL ARPT  CLEAR     42  34  73 CALM      30.18S
MATHER AIRPORT NOT AVBL
DOWNTOWN SAC   N/A       47  MM  MM MISG
SAC EXEC ARPT  CLEAR     47  35  63 CALM      30.18S
VACAVILLE      CLEAR     39  31  72 CALM      30.18F
TRAVIS AFB     CLEAR     38  31  76 CALM      30.17S
$$
CAZ019>021-011000-
SAN JOAQUIN VALLEY

CITY           SKY/WX    TMP DP  RH WIND       PRES   REMARKS
STOCKTON       CLEAR     45  33  63 E6        30.18S
MODESTO        CLEAR     40  35  83 E7        30.18F
MERCED         CLEAR     39  31  72 E5        30.19S
LEMOORE        CLEAR     41  23  48 SW7       30.21S
FRESNO         CLEAR     47  31  53 CALM      30.21R
HANFORD        CLEAR     38  36  92 N3        30.22R
PORTERVILLE    CLEAR     41  31  67 SE3       30.22R
BAKERSFIELD    CLEAR     60   2   9 SE20      30.20R
$$
CAZ011-012-071-011000-
NORTHERN MOUNTAINS

CITY           SKY/WX    TMP DP  RH WIND       PRES   REMARKS
YREKA          CLEAR     27  20  75 NE6       30.16F WCI  20
MOUNT SHASTA   CLEAR     30  22  72 NE3       30.16F
ALTURAS        CLEAR     24  18  77 N3        30.20F
$$
CAZ011-012-071-011000-
SIERRA NEVADA MTNS

CITY           SKY/WX    TMP DP  RH WIND       PRES   REMARKS
BLUE CANYON    CLEAR     39  25  57 CALM      30.22F
TRUCKEE        CLEAR     19  14  79 CALM      30.25S
TAHOE VLY ARPT CLEAR     20  15  81 S5        30.22F WCI  13
MAMMOTH LAKES  FAIR      18  10  73 N5        30.28F WCI  11
$$


 

View Past Reports for Sacramento, CA.

Products Courtesy of NOAA-NWS
NWS Information Parsing Script by Ken True at Saratoga Weather - Script by SE Lincoln Weather.

powered by Cumulus v1.9.3 (1059)
Ambient Weather VWS v14.00
Top Website Map Copyright © 2007 - 2021 Foresthillweather.com Never base important decisions on this or any weather information obtained from the Internet